Location: Les Chemineaux
(47.3024°N, 1.5104°E)
Time: 21:47:41
(UTC+00:00)

Landsat 5 - Pass Details

Date: 19 May 2025
Orbit: 510 x 610 km, 98.1° (Epoch: 18 June)

Event Time Altitude Azimuth Distance (km) Brightness Sun altitude
Rises 23:28:59 0° 8° (N) 2,814 8.3 -22.5°
Reaches altitude 10° 23:31:11 10° 2° (N) 1,924 7.2 -22.6°
Maximum altitude 23:35:11 46° 290° (WNW) 806 4.2 -22.6°
Enters shadow 23:36:02 40° 254° (WSW) 890 4.2 -22.6°
